Wind_Speed
4 7 1 1 3 4 7 4 4 5 7 6 8 5 8 9 8 9 7 6 7 6 3 7 12 11 13 14 13 13 12 11 11 10 11 10 10 9 7 8 7 7 6
1 4 4 4 5 3 4 5 8 8 11 12 3 6 7 6 8 4 8 6 5 4 2 6 10 10 11 14 13 13 14 12 11 11 12 12 12 11 12 9 8 8 8
6 5 6 5 3 3 5 6 7 7 11 14 7 7 4 7 3 6 4 9 6 4 1 5 7 9 10 13 15 14 14 13 11 10 10 10 11 13 11 12 10 9 8
9 6 8 8 12 1 2 6 5 4 11 7 10 4 4 4 8 3 2 3 5 3 6 4 5 7 9 10 12 12 11 13 13 13 14 13 13 12 13 13 13 13 11
10 7 9 4 3 1 5 5 5 8 10 8 9 2 2 4 5 7 4 8 3 4 2 4 1 3 7 7 8 9 10 13 13 13 13 14 14 15 15 15 13 13 13
11 8 10 8 5 6 4 3 2 7 6 6 6 7 2 3 1 3 3 7 5 7 11 6 5 7 2 3 6 8 8 10 11 12 13 15 16 15 16 17 17 16 15
10 10 11 7 7 4 4 0 2 5 11 2 5 11 10 7 6 5 7 8 7 7 6 9 10 8 4 3 2 5 6 8 10 12 13 12 13 15 15 16 17 17 17
11 12 9 8 11 4 5 5 1 3 9 4 2 9 2 4 6 5 8 7 7 8 6 7 7 7 5 3 2 1 3 6 8 9 10 12 13 14 14 15 15 17 18
11 13 8 6 3 3 4 6 3 1 6 2 1 2 3 1 3 4 8 7 7 6 6 2 2 4 4 2 1 4 5 4 4 5 7 9 11 11 13 14 15 16 17
14 13 10 10 10 6 3 4 3 3 4 7 6 5 1 1 2 1 5 9 8 10 6 2 4 1 3 2 4 6 7 5 4 5 6 7 8 9 10 12 13 14 14
15 14 12 12 9 4 9 9 5 7 4 4 8 2 5 5 2 1 3 5 8 7 8 4 4 3 4 5 5 7 6 10 8 7 7 7 7 8 9 10 12 14 14
18 15 14 13 11 7 7 8 7 6 5 3 3 3 5 2 2 1 1 4 5 3 7 10 7 8 6 4 6 10 10 12 12 11 9 8 7 7 8 9 10 11 14
20 23 18 18 16 13 13 11 11 10 7 4 3 5 4 3 3 4 4 3 2 8 7 11 8 12 9 8 8 10 11 12 15 13 13 12 12 13 13 12 13 14 14
19 26 25 22 18 18 16 15 13 12 11 10 7 5 5 6 5 8 6 3 1 3 13 12 9 9 10 8 10 10 14 11 11 15 16 17 19 19 20 18 17 18 19
18 23 25 22 22 18 18 17 16 14 9 11 10 11 9 11 11 9 6 6 7 2 3 9 6 8 7 8 11 9 13 14 16 16 20 21 19 19 19 19 20 21 22
25 25 24 24 22 22 21 20 16 16 15 13 13 14 16 13 10 7 9 12 14 14 2 9 7 8 9 10 13 12 14 16 19 22 23 23 22 21 22 23 23 23 23
31 25 28 25 25 24 24 24 20 20 21 19 15 15 9 10 10 9 11 5 3 6 6 8 12 12 15 18 17 17 20 20 22 24 25 26 25 26 27 25 25 24 24
30 35 28 28 27 27 27 27 26 20 20 22 19 15 13 12 14 15 14 11 12 13 12 13 15 16 14 13 16 13 19 22 21 22 22 25 25 28 31 30 28 27 27
33 32 32 30 30 30 31 31 29 25 21 21 19 18 17 16 14 13 11 14 13 12 11 17 19 16 18 21 21 22 23 26 20 24 26 25 31 27 29 33 35 33 32
34 30 30 31 32 33 34 30 28 25 23 20 17 15 14 15 15 15 16 16 16 15 13 13 25 23 18 19 19 18 19 18 21 22 23 25 29 27 26 30 29 34 33
32 28 26 27 28 29 28 27 26 25 23 20 17 16 17 16 16 18 16 14 17 15 13 14 16 21 20 19 16 18 18 21 22 23 24 22 25 24 25 26 26 28 31
27 23 25 27 28 30 28 28 27 25 25 23 20 16 17 12 15 17 14 15 18 19 20 19 19 17 21 20 19 21 16 17 15 19 20 25 28 27 30 35 33 31 34
23 24 26 32 30 24 23 25 29 27 25 22 19 17 19 19 16 19 16 15 16 19 24 21 23 21 21 24 20 18 16 16 19 24 26 28 25 25 26 28 32 33 33
24 21 23 27 25 25 26 19 21 27 24 21 16 17 19 20 18 16 18 19 22 23 23 22 23 24 24 22 18 18 21 22 24 24 23 18 23 27 30 28 26 36 40
18 21 24 24 23 22 25 21 21 25 25 20 21 19 19 20 22 21 19 23 25 19 18 18 22 25 24 21 20 19 22 16 17 18 21 26 23 23 28 32 35 34 36
19 20 23 23 22 20 20 20 22 22 18 20 20 21 22 23 24 22 20 16 13 14 12 15 13 12 15 22 22 23 29 19 19 16 16 20 24 27 20 31 24 32 28
Wind_Direction
298 310 84 324 6 4 22 27 37 33 326 306 336 5 349 321 335 318 338 281 328 341 227 183 192 202 190 213 207 206 211 209 211 215 206 206 214 221 235 217 222 232 252
312 239 301 328 320 14 340 11 7 337 313 299 322 353 317 317 342 320 310 270 271 355 243 190 201 214 209 209 212 214 214 213 215 216 221 223 221 225 238 237 247 244 244
262 258 300 313 309 16 356 339 321 324 313 311 1 339 339 359 2 330 288 326 239 238 48 209 197 206 205 212 214 214 219 222 222 221 224 228 235 240 240 243 249 253 255
219 249 268 268 285 237 306 309 285 327 315 345 305 283 346 351 339 264 43 314 324 282 258 176 182 211 220 220 218 227 231 230 235 238 240 243 242 239 248 252 256 259 263
236 241 267 299 221 338 318 306 319 346 327 330 311 321 106 55 344 86 66 57 58 0 150 160 141 277 233 226 226 227 236 243 246 246 250 255 255 250 248 253 254 256 259
225 240 258 257 283 261 292 338 16 316 299 262 296 303 124 128 78 75 82 101 40 50 73 44 9 267 221 244 246 241 241 245 248 253 257 260 262 258 255 256 257 257 260
234 234 237 251 246 254 212 232 306 307 282 223 311 278 213 173 154 142 108 74 35 51 24 27 42 73 133 156 251 255 254 249 248 251 251 256 257 258 260 259 260 262 260
210 221 226 240 221 221 165 163 118 309 313 156 300 330 144 181 157 174 119 109 99 65 53 49 34 63 80 100 10 27 285 267 260 259 249 249 253 253 255 257 257 259 261
208 224 209 220 151 117 130 121 150 240 313 200 105 319 14 96 164 202 150 136 121 109 97 43 85 42 57 346 340 353 346 297 270 262 259 257 261 267 267 266 265 262 262
204 207 220 202 184 186 139 141 160 197 262 300 179 152 127 21 359 158 168 154 165 144 93 79 43 341 49 41 305 305 339 331 311 293 284 280 276 270 267 269 269 269 270
199 198 192 185 185 190 195 157 158 182 203 297 338 176 157 207 161 303 121 229 200 167 173 154 238 249 262 306 291 285 314 330 312 313 303 296 299 301 295 285 278 275 272
188 195 184 194 179 179 178 177 184 197 208 198 266 360 287 9 171 227 281 9 17 350 218 210 217 221 228 267 272 272 295 311 314 297 294 292 296 309 314 315 309 298 289
188 189 190 192 190 197 190 181 187 193 201 205 205 283 302 277 338 329 36 67 23 322 325 313 217 212 222 234 246 270 274 292 305 294 294 284 283 289 292 293 299 306 306
203 194 189 202 192 197 191 194 192 185 196 201 203 227 288 257 239 243 239 163 307 290 317 316 252 225 226 223 242 251 277 281 289 289 289 290 288 290 287 287 289 294 298
203 190 195 197 197 193 190 198 195 197 183 199 208 220 230 243 264 258 198 189 204 227 276 304 357 275 246 253 261 276 268 272 283 278 282 287 286 288 287 284 284 291 292
202 198 194 197 196 200 198 197 201 196 200 210 226 235 225 237 268 291 269 247 245 230 256 295 326 353 327 291 281 288 272 275 279 286 285 277 279 278 277 284 286 288 290
205 205 202 195 201 200 198 200 204 205 205 209 218 240 247 238 250 253 280 280 251 259 260 278 297 295 291 292 284 277 273 271 269 269 272 282 272 268 268 278 283 284 289
206 207 199 197 200 202 200 201 207 210 195 207 214 219 239 237 238 244 262 275 278 271 274 274 276 278 268 279 284 287 275 265 264 267 278 286 281 280 281 280 276 278 288
205 206 202 198 199 198 200 204 207 205 204 209 216 219 230 234 241 247 257 263 271 287 299 303 287 278 280 292 296 291 295 287 271 283 280 282 276 282 277 273 270 270 279
207 206 202 200 198 198 204 201 205 209 208 210 214 221 222 231 234 246 257 269 279 284 297 286 291 305 281 289 286 290 298 298 297 291 284 285 286 288 290 291 289 277 277
209 208 203 204 201 203 203 200 207 211 211 212 212 214 228 231 237 244 246 252 257 261 267 270 286 297 298 295 308 302 301 299 293 293 291 296 297 292 289 292 292 288 287
207 203 200 200 199 204 207 210 209 209 211 213 214 218 229 236 244 257 260 242 253 264 271 266 266 263 276 281 289 298 295 294 291 292 298 300 296 291 291 291 289 287 287
198 201 202 206 207 209 211 217 208 211 216 218 220 214 235 245 252 246 255 259 268 269 277 273 266 264 267 282 292 292 289 297 293 292 290 283 287 284 289 288 288 288 288
201 207 211 206 206 212 212 227 221 216 217 222 224 228 237 247 243 240 259 268 276 285 280 272 265 271 275 280 270 275 290 288 289 290 289 274 296 293 293 294 295 300 300
207 217 216 201 203 208 213 216 224 223 226 230 235 236 238 249 250 261 262 273 286 281 280 277 279 275 265 263 277 284 271 268 280 287 292 290 301 314 309 303 299 292 293
223 220 209 194 204 204 218 221 220 222 226 237 241 241 245 245 255 264 274 273 269 278 285 286 289 278 271 285 286 271 270 251 265 284 290 320 315 310 305 299 295 296 291
Height
839 841 847 849 847 845 844 844 844 845 845 845 845 845 845 844 842 842 841 841 843 843 845 847 849 850 851 856 856 858 861 862 863 864 864 865 867 868 870 870 871 873 874
839 839 841 841 841 842 841 842 844 845 845 844 843 844 844 843 842 841 841 840 841 842 844 846 847 848 850 852 855 857 860 860 861 862 864 864 865 867 868 870 870 871 872
836 837 837 837 839 839 841 843 844 845 844 843 843 843 843 843 842 841 841 840 840 841 842 843 847 848 849 852 854 855 857 859 860 860 861 863 864 866 867 868 869 870 871
835 836 837 838 838 840 840 843 844 844 843 843 843 842 843 842 842 841 841 841 841 841 840 842 845 847 848 849 850 853 855 855 857 858 859 861 862 863 864 865 866 868 869
836 835 836 838 840 839 840 842 842 843 842 842 841 840 841 842 841 841 841 841 841 841 841 843 843 844 846 847 849 851 852 854 856 856 858 859 860 861 861 862 863 865 866
832 835 836 837 837 837 840 841 841 842 841 840 840 840 841 841 841 841 842 842 842 842 842 844 844 843 846 848 849 850 850 852 853 854 855 856 857 857 859 859 860 861 863
829 832 833 835 835 836 838 839 840 840 839 839 839 838 841 840 842 841 841 842 843 844 844 845 844 844 845 847 848 848 848 848 849 850 851 852 853 854 855 856 857 858 859
827 828 830 833 833 834 835 837 838 838 838 838 838 838 840 841 841 841 842 843 843 844 845 846 846 847 847 846 845 846 847 848 848 848 849 849 850 850 850 851 852 853 854
824 827 829 831 831 833 833 835 836 838 838 838 838 839 840 841 841 842 842 843 844 844 845 846 846 846 847 847 846 846 846 846 847 847 848 848 848 848 848 848 849 849 849
820 823 825 827 829 830 832 833 835 836 837 837 838 839 839 840 841 844 843 842 842 844 845 845 846 846 846 847 847 847 847 846 846 846 846 846 846 845 845 846 845 846 846
817 820 822 825 826 829 830 831 833 834 835 836 836 837 838 838 839 839 843 843 843 841 842 843 844 845 845 845 845 845 846 846 845 845 845 844 844 843 843 843 843 842 842
814 817 820 822 824 827 828 831 833 835 835 834 836 837 838 837 838 838 839 839 841 841 841 840 841 842 843 843 843 843 843 844 844 844 843 843 842 841 840 840 839 839 839
809 812 815 818 821 824 825 827 829 831 834 835 835 837 838 837 837 838 839 841 842 841 839 838 838 839 840 840 841 840 840 841 841 841 841 841 840 839 838 837 836 836 835
804 806 810 813 816 819 823 825 826 828 831 833 834 834 836 836 836 836 838 839 841 839 838 838 837 837 837 837 837 837 837 837 837 838 838 837 837 836 835 834 833 832 831
800 802 804 808 813 817 820 823 825 826 828 831 831 831 831 832 834 834 834 836 838 840 839 836 835 835 835 836 835 835 835 834 833 833 833 832 832 831 830 829 828 828 826
795 796 801 805 810 813 817 819 821 823 824 827 830 830 830 829 831 832 833 833 833 835 835 834 834 835 835 833 832 832 832 831 830 828 826 826 825 825 824 823 822 822 821
788 792 797 801 806 809 812 814 817 818 818 821 824 826 827 829 828 829 830 830 830 830 831 831 831 831 831 831 830 828 828 826 825 823 821 820 819 818 817 817 817 815 814
783 788 792 796 800 804 807 808 811 812 813 815 818 821 823 825 825 827 827 827 827 827 828 828 827 826 825 825 825 822 821 819 819 818 816 815 813 811 811 810 809 808 807
776 780 784 788 793 797 799 800 803 805 806 809 812 815 818 821 822 824 826 826 826 826 827 828 826 823 819 819 817 816 815 813 814 813 811 808 805 804 804 803 801 801 800
770 774 778 783 787 790 793 797 800 803 802 804 807 811 813 817 818 820 821 822 823 822 823 824 823 823 816 814 812 812 811 810 809 807 805 803 801 798 797 795 793 792 791
765 771 776 780 785 789 791 794 798 800 801 802 803 804 808 811 813 813 815 816 819 818 817 816 815 815 812 811 810 810 807 805 803 802 799 797 795 793 791 789 788 786 784
762 767 770 775 780 781 786 790 793 796 797 798 799 800 805 806 808 811 810 812 812 810 809 808 807 807 808 808 807 806 804 803 798 798 794 791 790 787 785 783 780 779 776
756 761 765 767 773 783 785 784 789 792 794 793 795 796 801 802 804 806 805 806 805 804 804 804 803 802 803 802 803 802 801 799 796 793 790 784 785 781 779 777 774 770 768
752 757 762 766 770 773 776 781 785 787 789 790 792 793 795 796 799 800 801 800 799 799 799 799 798 797 796 797 797 797 795 792 789 786 783 779 778 774 771 768 766 764 761
748 753 757 761 766 771 773 779 781 783 785 787 789 791 792 793 792 794 796 796 795 794 794 793 793 792 791 792 793 791 789 788 784 782 780 776 773 769 766 761 759 756 754
745 749 752 755 762 766 771 772 776 779 782 784 785 785 786 787 789 791 791 791 790 790 790 790 789 788 789 787 786 785 782 781 780 777 776 774 770 769 760 755 751 748 743